Wind_Speed
52 49 38 49 42 38 39 44 44 41 39 39 41 41 40 38 35 31 28 26 25 26 27 28 29 28 30 29 31 32 34 36
48 43 41 47 46 42 45 37 34 38 46 42 42 42 44 46 39 31 29 28 30 29 31 33 34 35 34 33 34 36 38 40
41 33 38 39 44 43 41 40 34 47 44 23 27 23 35 46 40 33 29 31 33 34 35 37 40 40 40 39 40 42 45 45
39 34 39 40 39 42 43 37 39 38 52 36 12 13 22 33 31 33 36 35 35 36 37 39 37 41 40 40 42 44 47 50
40 38 37 41 40 43 42 39 40 38 32 42 28 12 2 9 27 31 33 34 38 39 38 37 40 43 44 46 45 48 48 52
40 38 38 38 41 42 41 40 42 40 36 27 24 19 17 26 32 35 38 38 40 40 43 44 44 41 38 47 45 44 48 45
40 37 37 37 37 39 39 41 41 39 34 26 28 24 26 32 28 35 36 37 39 40 41 43 41 38 40 42 39 45 49 41
43 38 36 35 37 39 39 40 38 38 35 30 27 26 27 31 40 41 40 44 42 39 43 43 46 47 48 49 57 59 60 54
42 38 37 36 36 38 40 40 37 36 34 30 30 27 29 30 43 42 46 45 45 45 41 38 33 31 31 34 38 41 40 45
41 38 36 36 37 39 39 36 34 33 32 32 31 31 33 34 36 39 43 42 40 33 30 31 33 32 33 31 28 31 34 36
40 36 35 37 39 39 37 32 26 32 33 31 30 31 36 36 38 38 36 33 30 29 30 33 36 33 33 33 33 35 37 38
39 37 33 36 38 34 31 30 28 32 32 30 31 31 34 34 32 31 30 30 32 34 35 35 35 34 35 37 38 38 39 40
31 32 33 33 32 28 30 29 30 30 31 29 29 28 28 29 29 31 31 33 32 32 33 35 35 36 37 38 38 39 40 40
29 28 31 27 21 25 27 27 30 28 28 28 27 28 29 31 32 32 33 34 36 36 36 36 35 37 39 40 42 43 44 44
29 30 27 22 23 23 25 26 27 28 30 31 30 31 33 33 34 34 36 39 40 41 41 40 36 35 36 38 39 41 43 43
43 37 35 31 31 26 26 30 29 31 34 35 35 37 37 38 38 39 40 42 42 43 42 39 39 38 38 39 40 43 44 45
33 38 42 37 37 36 34 33 35 38 39 39 41 42 42 42 43 43 44 44 43 43 41 41 40 40 41 42 43 45 46 48
30 28 32 31 29 29 32 35 39 40 42 44 46 47 47 47 47 46 46 45 44 42 42 42 42 43 44 44 45 45 45 44
31 36 37 33 27 25 26 30 35 40 43 44 46 47 48 49 48 47 46 46 45 44 44 44 45 46 47 47 47 46 44 43
35 39 31 25 19 24 29 34 34 40 40 40 42 43 44 45 44 43 44 44 42 45 45 45 46 47 47 47 46 44 43 43
Wind_Direction
262 266 258 257 253 253 252 252 257 261 258 261 268 265 265 260 257 257 258 257 257 255 259 264 265 270 271 276 276 278 276 279
260 270 264 260 262 255 256 250 249 251 263 253 255 263 268 265 252 247 254 260 258 259 260 259 262 267 270 271 269 268 271 271
256 246 252 254 257 260 257 256 254 261 255 236 273 264 258 251 238 244 256 256 255 258 259 262 264 266 265 264 264 266 268 269
255 247 243 251 255 256 257 258 259 262 270 257 265 310 283 269 242 251 252 252 254 259 262 264 268 267 266 266 267 269 270 270
251 250 247 248 253 256 259 261 262 255 256 274 308 300 328 215 225 242 248 257 260 259 260 266 274 272 271 269 268 267 268 268
251 251 248 245 250 255 259 261 263 264 265 272 279 272 242 233 234 240 247 256 262 263 262 262 268 271 270 264 266 272 275 270
254 251 250 248 249 253 255 256 261 268 271 272 263 258 243 232 237 248 263 264 265 266 267 273 264 256 263 255 267 266 271 275
250 247 248 244 246 251 255 258 261 266 272 267 260 254 249 244 247 257 258 261 260 260 264 268 265 270 267 264 272 274 275 273
251 248 243 243 244 248 252 255 260 267 269 265 264 258 255 248 240 254 262 264 266 265 272 272 277 279 277 273 274 276 286 281
246 245 244 244 244 247 252 258 258 262 262 260 262 261 260 257 254 258 264 265 268 271 273 275 274 275 278 279 289 290 293 291
246 241 240 240 243 245 249 255 256 259 261 258 254 257 257 256 257 256 256 263 264 267 266 266 268 270 276 280 283 285 285 289
246 246 241 242 245 248 250 248 246 249 252 246 245 249 250 250 255 259 261 258 255 259 261 265 270 272 273 273 275 280 285 289
254 255 254 249 252 253 250 249 242 243 250 253 255 255 254 257 259 262 257 257 259 263 264 266 269 273 277 280 282 285 287 285
245 249 257 259 254 250 256 254 255 258 257 264 266 272 274 275 276 277 278 277 274 271 270 271 274 279 283 284 285 286 288 289
247 241 253 253 255 259 260 262 263 266 268 268 270 270 270 272 274 276 278 277 275 276 277 280 279 278 278 279 278 279 281 283
238 237 235 247 253 257 254 254 260 264 265 266 269 270 270 271 272 273 274 274 273 276 277 275 277 278 279 279 280 282 285 288
245 243 238 233 232 241 246 253 260 258 261 265 268 271 273 272 273 274 274 274 272 270 270 274 278 280 282 283 285 288 291 292
237 231 229 226 234 244 249 252 256 256 259 263 267 271 272 273 273 275 276 276 271 268 271 276 280 283 283 285 287 287 289 290
238 245 227 212 223 236 253 265 267 263 261 263 265 268 271 273 274 274 274 274 272 269 275 279 281 283 285 286 286 288 290 288
239 243 238 232 238 268 283 277 264 259 259 263 265 268 270 273 274 274 273 275 272 272 277 280 282 285 288 288 288 289 287 286
Height
5848 5850 5863 5859 5869 5874 5873 5869 5871 5874 5876 5880 5882 5884 5886 5886 5886 5889 5890 5889 5889 5888 5888 5888 5889 5889 5890 5891 5892 5891 5889 5887
5847 5850 5851 5852 5855 5862 5862 5856 5866 5855 5866 5868 5873 5876 5876 5880 5881 5881 5883 5883 5883 5882 5882 5881 5880 5881 5882 5882 5882 5881 5879 5878
5836 5846 5844 5845 5846 5849 5851 5851 5856 5857 5855 5858 5861 5860 5865 5869 5871 5873 5875 5876 5874 5875 5874 5874 5874 5873 5873 5872 5872 5871 5871 5869
5828 5834 5836 5839 5840 5840 5842 5847 5849 5849 5848 5849 5854 5857 5857 5856 5863 5868 5868 5868 5867 5866 5867 5866 5866 5867 5866 5865 5863 5863 5863 5861
5823 5824 5828 5829 5831 5830 5832 5837 5841 5845 5843 5843 5847 5848 5849 5851 5856 5859 5859 5860 5859 5858 5857 5858 5857 5856 5855 5853 5852 5851 5849 5848
5815 5816 5820 5824 5823 5823 5825 5827 5829 5834 5839 5841 5843 5845 5845 5848 5849 5852 5851 5851 5850 5850 5850 5849 5849 5847 5846 5844 5843 5843 5841 5836
5806 5810 5813 5817 5817 5816 5818 5820 5822 5824 5829 5835 5836 5842 5842 5843 5843 5844 5845 5842 5839 5838 5838 5837 5837 5837 5836 5833 5835 5834 5832 5828
5799 5803 5804 5808 5809 5809 5809 5811 5814 5817 5820 5826 5828 5833 5836 5838 5836 5836 5836 5833 5831 5831 5831 5830 5829 5828 5828 5825 5823 5820 5820 5818
5790 5794 5796 5798 5801 5802 5803 5806 5810 5813 5815 5818 5821 5824 5827 5827 5826 5825 5826 5823 5821 5820 5822 5821 5818 5818 5816 5814 5813 5810 5807 5805
5783 5786 5789 5792 5794 5795 5798 5802 5805 5805 5807 5809 5812 5813 5815 5818 5819 5816 5814 5813 5811 5812 5811 5809 5809 5809 5808 5806 5803 5801 5801 5798
5773 5779 5782 5784 5786 5790 5793 5795 5797 5796 5798 5801 5804 5807 5806 5806 5807 5806 5805 5805 5805 5804 5803 5803 5803 5801 5798 5797 5796 5795 5794 5792
5765 5771 5777 5779 5781 5784 5786 5788 5790 5790 5791 5794 5797 5798 5799 5797 5797 5797 5799 5799 5799 5798 5797 5797 5795 5793 5791 5790 5788 5787 5785 5782
5759 5762 5766 5771 5776 5779 5780 5781 5783 5786 5785 5787 5788 5789 5788 5788 5789 5791 5792 5791 5790 5791 5789 5787 5786 5784 5783 5780 5777 5775 5774 5773
5753 5756 5760 5765 5768 5770 5770 5772 5774 5776 5776 5778 5778 5778 5779 5780 5780 5779 5779 5779 5779 5779 5779 5779 5777 5775 5772 5769 5766 5764 5763 5762
5748 5751 5755 5758 5761 5764 5765 5767 5768 5770 5771 5771 5772 5773 5774 5774 5774 5773 5772 5771 5769 5769 5768 5766 5765 5763 5762 5761 5759 5757 5755 5753
5742 5746 5750 5753 5755 5758 5760 5762 5763 5764 5765 5766 5767 5767 5767 5767 5767 5767 5766 5764 5763 5762 5760 5758 5756 5754 5752 5750 5748 5745 5742 5739
5735 5738 5744 5746 5749 5752 5754 5755 5757 5759 5760 5761 5761 5760 5760 5760 5759 5759 5757 5757 5756 5755 5753 5750 5748 5745 5742 5739 5737 5734 5730 5727
5730 5734 5736 5739 5742 5745 5747 5750 5751 5753 5754 5754 5754 5754 5753 5752 5751 5749 5748 5748 5747 5745 5742 5740 5738 5735 5732 5729 5727 5724 5721 5719
5725 5727 5729 5731 5736 5739 5743 5744 5745 5745 5745 5745 5745 5744 5743 5742 5740 5739 5738 5737 5736 5734 5732 5730 5728 5725 5722 5719 5715 5713 5710 5707
5719 5719 5723 5727 5729 5732 5734 5736 5735 5734 5735 5734 5734 5733 5732 5731 5730 5729 5728 5727 5726 5724 5722 5720 5716 5713 5710 5707 5704 5701 5698 5697